Kezdőlap
METAR-TAF:

METAR-TAF

Repülőterek :

Red Wing Regional Airport

Red Wing, Minnesota, Amerikai Egyesült Államok

földrajzi szélesség: 44-35-25N, földrajzi hosszúság: 092-29-10W, magasság: 239 m

Jelenlegi meteorológiai megfigyelések

A jelentés 25 perccel ezelõtt készült, 12:55 UTC
Nyugat-északnyugati szél 3 kt
Hőmérséklet -1°C
Páratartalom 64%
Légköri nyomás 1025 hPa
Látótávolság: 16.1 km
Derült ég

METAR: KRGK 041255Z AUTO 29003KT 10SM CLR M01/M07 A3028 RMK AO2

Idő: 07:20 (13:20 UTC)


TAF: hiányzik

Meteorológiai megfigyelések és előrejelzések több, mint 4000 repülőtéren (METAR és TAF jelentéseket).

A térképen piros és sárga pontok jelzik az elérhető meteorológiai állomásokat.

Mozgassa az egeret a pont fölött, hogy megjelenjen az állomás neve.

Azután kattintson az időjárási megfigyelések és előrejelzések megtekintéséhez.

A térkép megváltoztatása: kattintson a fekete keresztel jelölt zöld gombra ráközelítéshez, a vonallal jelölt zöld gombra távolításhoz, vagy a zöld nyilakra a szomszédos térképek eléréséhez.


METAR-TAF: